Wind_Speed
59 62 53 50 50 49 46 45 44 42 39 37 35 33 32 29 28 25 23 20 18 14 12 12 11 11 10 8 14 16 10 7 3 4 2 4 9 10 14 13 13 17 18 18 16 18 16
62 64 61 56 54 52 49 49 47 45 43 40 38 36 35 31 30 28 25 23 21 18 15 14 14 14 12 10 19 14 13 9 6 4 3 7 8 11 21 16 17 16 14 18 18 19 19
58 59 64 64 55 54 53 52 50 49 47 43 41 38 37 33 31 30 28 25 24 21 18 17 16 17 18 13 17 20 13 12 9 5 6 9 14 13 8 13 14 18 22 21 21 21 22
70 64 68 68 65 56 55 55 53 52 50 47 44 41 39 36 33 32 30 27 26 23 21 20 19 20 23 19 17 17 18 13 13 11 11 13 14 14 15 16 18 17 18 23 20 21 22
84 77 61 68 63 60 56 56 56 54 53 51 47 43 41 38 36 34 31 30 28 25 24 22 20 22 23 23 18 18 18 14 12 14 12 13 14 10 10 15 17 15 22 21 22 17 16
79 85 78 55 64 62 59 59 58 54 54 53 50 46 43 40 38 36 32 31 29 27 26 24 23 22 18 17 18 13 10 11 11 16 13 13 14 13 12 13 23 18 16 18 15 14 16
58 75 84 76 61 73 63 61 62 54 55 53 51 48 44 41 40 37 34 31 28 28 28 28 14 15 17 19 18 11 13 17 16 16 16 13 16 18 14 16 20 21 20 19 16 8 11
47 52 63 82 78 62 64 73 62 58 54 54 52 50 46 43 41 38 36 31 21 30 30 29 27 32 25 18 24 23 20 18 16 18 13 15 19 18 16 17 19 19 20 20 19 19 20
45 47 50 64 84 78 63 72 75 58 53 54 53 51 47 43 43 41 37 31 27 29 32 36 34 31 31 28 32 27 21 21 20 17 16 20 18 14 18 18 17 19 19 19 20 17 16
45 45 48 50 64 78 70 78 82 68 58 54 54 52 48 46 46 39 38 28 27 21 19 29 26 25 27 27 36 28 26 24 19 20 17 20 19 21 17 13 12 18 15 17 19 18 20
44 44 45 48 53 63 86 68 75 70 60 58 56 53 50 48 42 41 33 27 22 15 6 11 19 25 27 30 27 26 22 28 26 18 13 17 12 11 17 14 12 16 14 13 13 18 20
44 44 47 48 50 55 77 80 60 71 69 60 58 54 51 47 44 39 31 26 19 12 12 10 19 19 23 25 26 28 20 25 21 24 21 24 11 12 13 11 14 13 11 14 15 16 16
42 43 43 49 51 51 66 80 61 68 72 64 59 55 54 48 47 41 34 24 22 16 23 16 16 21 19 19 25 23 25 27 22 16 22 23 27 22 13 11 11 10 11 12 11 11 12
38 34 39 46 47 52 58 80 72 66 66 68 60 53 53 50 42 40 33 31 17 34 37 6 16 18 23 19 21 22 18 25 30 21 13 17 21 27 21 18 14 14 14 13 11 12 16
44 40 37 43 49 53 57 70 76 66 64 65 58 52 53 53 45 43 39 37 44 42 27 36 13 17 20 20 12 21 26 23 23 29 15 8 17 9 15 14 13 14 21 16 21 22 20
41 41 41 41 53 56 56 70 83 60 65 66 64 58 59 52 48 44 45 52 53 43 32 21 34 24 22 22 22 18 18 21 27 24 25 18 15 13 13 15 18 19 16 16 14 10 16
42 41 41 40 48 57 53 64 83 65 67 67 67 58 62 53 50 48 54 69 57 39 29 30 31 31 27 25 26 24 12 17 15 25 24 21 21 19 17 15 19 18 23 23 24 24 13
39 38 36 39 45 51 55 71 78 71 59 68 73 64 63 57 57 58 66 70 46 36 36 26 28 30 34 29 25 31 27 16 14 19 26 29 15 24 30 25 19 22 26 27 27 19 31
36 39 34 37 44 44 58 62 70 73 69 70 80 71 52 62 65 67 68 60 51 40 41 36 34 32 30 32 29 28 30 20 18 18 22 22 18 22 25 26 27 31 28 28 34 36 37
37 34 33 34 37 45 62 56 70 84 71 73 73 52 49 58 66 67 66 64 54 52 40 43 35 28 31 30 35 26 26 20 23 21 29 21 23 20 24 23 21 27 29 29 33 36 35
32 32 33 31 34 46 68 70 69 83 81 71 72 58 65 68 76 77 61 45 51 58 53 44 38 38 37 29 35 31 26 16 27 27 28 30 32 27 36 36 35 41 42 41 44 47 44
22 24 26 29 32 46 75 71 71 84 79 74 70 68 64 71 65 66 52 59 52 58 46 56 45 45 34 38 38 35 26 31 31 28 31 36 42 29 42 35 35 47 51 45 49 54 58
16 20 19 28 26 44 67 68 84 75 85 83 76 64 68 54 55 62 73 79 71 43 52 54 53 35 41 42 34 30 30 32 38 30 26 31 35 25 48 26 31 48 42 47 57 57 52
15 17 18 27 17 28 57 58 80 90 86 75 81 68 59 56 51 70 78 71 47 58 43 45 43 47 49 35 33 32 30 37 38 45 37 32 33 30 43 22 15 70 43 34 34 41 41
15 11 13 22 15 28 52 51 62 78 74 77 83 69 69 55 59 49 47 60 61 45 46 48 36 49 30 37 32 26 33 39 50 49 52 43 32 27 23 28 46 68 38 23 28 39 29
13 6 8 17 17 28 43 63 70 66 63 86 85 85 63 52 50 48 42 49 48 56 51 50 44 35 35 39 36 38 27 38 27 37 48 46 40 38 29 9 21 48 25 19 26 50 30
9 7 4 19 20 26 37 47 70 71 93 79 79 77 74 51 51 40 48 48 43 46 51 53 53 48 41 39 45 40 45 39 36 34 22 34 46 54 46 30 46 42 27 20 21 13 11
7 8 3 13 23 25 33 39 58 71 80 79 66 67 75 70 47 50 42 46 52 49 48 42 40 46 49 53 45 36 29 40 40 41 31 34 28 30 40 27 35 31 26 31 44 42 38
7 6 5 7 16 29 20 33 40 59 74 60 66 61 56 67 59 47 54 51 52 48 47 48 45 42 43 36 46 35 26 30 40 35 37 22 35 31 32 46 39 20 14 23 24 28 27
Wind_Direction
240 240 240 241 239 237 234 230 225 228 230 231 234 233 228 226 226 225 229 232 238 243 256 272 283 291 300 312 298 267 293 300 303 344 321 255 269 271 268 265 262 254 262 263 265 256 261
240 238 239 236 239 237 235 234 230 225 226 229 230 233 232 228 229 229 228 234 239 245 251 264 277 283 285 276 269 276 282 285 264 310 341 286 281 269 263 259 260 257 267 263 259 258 255
238 236 237 235 235 238 236 235 232 230 226 226 230 231 233 232 230 232 232 232 238 246 252 262 271 277 275 279 271 286 279 284 255 269 256 280 265 261 258 278 270 260 264 265 258 255 251
239 238 240 238 236 234 237 236 233 231 228 225 226 229 230 233 232 232 235 236 238 243 252 260 268 276 275 279 278 273 283 277 255 268 276 267 276 272 257 258 263 272 265 265 263 255 246
239 235 231 236 236 234 233 234 233 232 229 227 225 227 231 231 234 234 236 240 240 244 249 257 264 272 282 278 280 266 263 255 269 278 282 287 297 283 273 265 277 261 255 259 264 246 212
244 241 234 235 235 232 230 231 230 230 230 228 226 225 228 231 232 236 237 240 245 247 251 255 260 271 279 275 278 264 235 231 246 271 283 288 294 291 282 258 254 259 260 249 262 231 228
249 246 242 235 231 230 228 231 230 228 229 228 228 226 226 231 231 234 237 242 249 258 254 249 253 261 262 263 271 254 236 271 266 257 261 269 269 262 276 265 265 275 282 285 286 296 236
252 251 248 238 228 235 228 227 230 227 228 227 228 227 226 230 231 232 235 238 239 243 251 251 248 252 242 252 261 256 260 261 262 257 257 265 261 270 275 266 264 265 268 269 272 271 273
255 252 250 245 234 230 228 229 230 225 228 228 227 226 226 229 231 230 234 235 233 248 260 254 256 257 258 252 260 258 253 257 252 250 254 252 244 285 270 271 260 257 259 267 271 273 276
256 253 251 248 240 231 227 224 225 226 226 229 229 225 224 227 231 230 233 232 242 253 271 260 262 252 247 245 257 256 244 248 246 255 249 260 261 255 264 263 253 260 266 270 267 268 268
256 256 253 249 243 234 226 221 221 223 221 226 228 226 224 225 231 229 233 231 231 236 268 253 214 228 239 239 245 257 247 228 238 233 226 243 254 235 239 252 251 262 270 267 266 268 272
257 257 255 252 245 238 221 223 219 219 225 222 225 223 222 220 223 229 223 226 200 185 239 217 221 230 236 240 233 238 220 217 233 230 227 244 247 240 243 251 254 244 270 274 262 264 264
257 254 255 251 247 243 223 220 212 213 216 221 223 220 222 220 221 220 220 200 184 211 230 225 214 232 233 230 218 230 223 213 207 204 230 238 244 245 236 230 237 228 250 267 238 231 245
254 257 258 247 249 239 232 218 222 207 208 215 216 216 219 220 216 220 212 195 207 225 217 208 202 230 219 207 221 219 214 221 221 219 240 249 242 224 225 222 221 228 227 250 294 305 308
264 264 259 259 245 234 232 215 209 210 200 210 213 210 216 215 210 212 204 199 211 219 223 227 211 212 215 213 220 216 222 229 223 208 213 240 261 231 205 216 218 266 232 257 273 279 279
268 263 256 262 247 235 225 215 206 208 199 204 212 209 214 210 210 208 203 213 223 226 219 218 225 220 219 211 209 207 213 233 224 207 229 232 274 241 230 216 238 241 258 268 252 262 260
265 264 257 258 252 232 217 209 206 204 196 201 206 205 209 205 204 205 207 221 221 222 218 228 232 229 219 217 215 214 223 233 236 219 209 234 236 249 249 221 239 257 239 248 260 258 274
264 264 265 265 237 239 218 204 199 196 201 190 203 201 210 199 198 208 217 220 211 230 214 228 222 227 218 226 229 223 226 215 238 223 214 229 238 244 246 253 247 255 257 259 247 257 258
265 268 268 259 235 228 203 202 202 209 199 203 195 203 209 199 199 209 219 223 218 215 219 221 221 215 216 226 243 238 231 233 247 223 218 225 225 247 257 257 255 259 256 256 261 269 268
264 265 262 262 236 220 203 197 197 207 194 202 190 178 191 200 211 215 215 218 217 216 222 217 219 218 223 218 225 241 239 227 241 214 216 212 228 232 242 250 262 269 263 260 258 252 264
259 263 268 261 239 217 211 193 205 198 209 205 187 185 186 193 206 212 211 217 216 219 211 214 219 223 222 229 230 233 223 232 235 235 231 229 235 238 256 264 268 272 268 266 266 268 270
273 260 271 250 243 208 209 200 198 200 194 205 189 190 198 206 206 205 205 214 220 218 214 211 220 224 221 227 224 230 231 228 242 240 234 234 249 254 263 264 268 272 266 269 266 264 263
286 259 263 243 241 204 206 206 200 202 192 199 202 196 205 195 205 205 212 219 218 220 218 225 219 218 225 227 227 236 232 237 233 242 244 243 249 250 263 266 279 272 269 265 262 257 261
280 289 259 247 231 187 193 200 201 201 195 203 208 196 200 206 203 216 219 213 212 215 220 223 218 226 227 233 236 234 235 232 235 236 231 244 238 246 260 265 245 263 273 270 270 265 261
267 287 260 241 202 151 177 185 193 189 197 205 207 194 205 206 216 219 220 223 219 209 223 219 223 224 227 229 230 238 235 240 241 245 247 233 234 235 238 244 259 263 257 260 260 265 263
279 314 250 224 200 144 166 182 191 190 203 204 206 200 199 204 211 217 216 221 218 220 220 223 221 226 225 230 222 228 225 234 243 247 238 230 235 233 237 225 250 265 280 295 284 268 270
275 250 197 208 203 164 153 174 189 195 193 201 202 200 199 204 210 211 211 215 221 221 226 228 230 219 220 225 222 220 225 229 232 233 230 221 227 225 232 240 258 263 258 262 256 238 243
276 264 222 178 190 183 172 176 182 188 191 195 199 208 210 210 216 215 217 219 220 225 222 226 227 227 227 225 225 223 225 220 233 232 218 208 200 214 225 229 255 272 264 241 272 276 279
253 249 215 193 167 195 180 187 183 191 200 195 192 197 202 211 216 218 219 225 227 229 233 239 233 232 225 215 216 220 211 213 221 229 223 233 213 210 216 228 245 244 246 270 264 264 269
Height
3076 3081 3085 3091 3096 3100 3104 3108 3111 3118 3123 3128 3133 3136 3137 3139 3142 3144 3147 3148 3151 3153 3153 3153 3153 3153 3153 3153 3153 3150 3151 3150 3149 3149 3149 3150 3153 3155 3155 3154 3154 3153 3152 3150 3151 3150 3150
3064 3068 3074 3080 3086 3091 3096 3102 3106 3109 3115 3121 3125 3130 3134 3134 3138 3140 3142 3145 3148 3150 3150 3150 3151 3151 3150 3152 3148 3150 3150 3149 3148 3148 3148 3151 3153 3153 3149 3150 3150 3150 3149 3148 3148 3147 3148
3052 3057 3063 3069 3074 3081 3087 3093 3099 3104 3108 3113 3119 3124 3129 3131 3133 3137 3138 3140 3144 3146 3147 3148 3148 3147 3147 3149 3147 3145 3148 3147 3147 3146 3149 3151 3148 3147 3148 3148 3147 3146 3145 3143 3142 3142 3143
3039 3045 3050 3057 3063 3070 3077 3084 3090 3096 3101 3105 3111 3117 3122 3126 3128 3131 3134 3137 3140 3142 3144 3145 3144 3144 3142 3144 3144 3145 3144 3144 3144 3144 3144 3144 3143 3142 3142 3144 3142 3143 3142 3139 3137 3137 3138
3023 3033 3037 3044 3051 3061 3066 3074 3081 3087 3093 3098 3103 3109 3116 3119 3123 3126 3129 3133 3135 3138 3140 3141 3141 3141 3139 3138 3141 3141 3141 3142 3143 3142 3141 3140 3140 3139 3141 3142 3140 3138 3136 3135 3132 3132 3134
3006 3011 3023 3030 3038 3048 3054 3062 3069 3077 3084 3090 3096 3101 3108 3113 3117 3122 3124 3127 3130 3134 3134 3136 3137 3141 3138 3137 3136 3137 3139 3139 3141 3140 3139 3139 3139 3140 3140 3140 3136 3131 3133 3131 3129 3129 3130
2992 2996 3005 3018 3026 3033 3042 3051 3058 3066 3075 3082 3088 3094 3099 3106 3110 3115 3119 3124 3129 3130 3126 3131 3134 3134 3133 3133 3134 3135 3136 3136 3138 3137 3137 3139 3140 3138 3137 3137 3136 3133 3131 3129 3126 3127 3127
2980 2983 2989 3000 3012 3018 3026 3037 3048 3056 3065 3072 3080 3087 3092 3099 3103 3107 3112 3118 3124 3121 3119 3121 3125 3124 3130 3130 3129 3131 3133 3134 3133 3133 3136 3138 3134 3135 3134 3134 3133 3132 3130 3128 3127 3126 3125
2969 2973 2976 2982 2994 3006 3014 3024 3036 3044 3054 3063 3071 3078 3085 3091 3095 3099 3106 3113 3116 3117 3114 3114 3117 3118 3123 3126 3122 3125 3128 3129 3130 3131 3132 3132 3130 3132 3131 3130 3130 3129 3128 3127 3126 3124 3122
2959 2962 2964 2968 2975 2988 3000 3008 3021 3033 3042 3054 3063 3070 3075 3082 3089 3095 3099 3109 3112 3117 3112 3106 3107 3107 3113 3118 3113 3118 3121 3124 3126 3124 3128 3127 3126 3128 3126 3126 3128 3126 3126 3125 3123 3122 3119
2947 2949 2952 2956 2960 2968 2985 2995 3008 3021 3031 3042 3053 3061 3067 3075 3083 3087 3098 3103 3108 3115 3114 3100 3101 3100 3104 3108 3113 3109 3115 3117 3118 3123 3125 3123 3122 3121 3122 3124 3125 3124 3123 3122 3120 3119 3117
2935 2937 2939 2942 2946 2953 2967 2982 2991 3006 3021 3031 3042 3051 3059 3065 3073 3083 3089 3097 3105 3109 3103 3092 3092 3096 3099 3099 3104 3105 3107 3111 3115 3117 3118 3116 3120 3119 3119 3120 3121 3122 3121 3119 3118 3117 3114
2922 2924 2925 2929 2934 2941 2950 2966 2977 2990 3006 3019 3031 3040 3048 3057 3067 3075 3083 3092 3098 3094 3092 3089 3086 3091 3093 3094 3097 3100 3101 3102 3107 3112 3110 3112 3112 3116 3115 3116 3117 3118 3119 3116 3112 3110 3104
2910 2911 2913 2916 2920 2926 2934 2950 2966 2976 2994 3008 3020 3029 3038 3048 3062 3067 3079 3085 3081 3074 3080 3083 3083 3086 3086 3090 3092 3095 3098 3097 3099 3105 3106 3106 3107 3107 3110 3109 3113 3113 3115 3114 3107 3103 3100
2900 2899 2901 2903 2905 2911 2920 2933 2954 2966 2978 2995 3008 3014 3026 3038 3051 3059 3068 3068 3059 3063 3073 3078 3082 3083 3083 3087 3089 3091 3091 3093 3096 3098 3101 3101 3101 3102 3105 3106 3110 3110 3109 3111 3108 3105 3101
2886 2886 2888 2890 2892 2897 2906 2919 2937 2952 2968 2981 2992 3003 3014 3030 3041 3050 3054 3050 3046 3057 3067 3072 3072 3077 3080 3083 3085 3085 3086 3084 3088 3093 3097 3096 3099 3101 3102 3102 3104 3105 3108 3107 3104 3102 3096
2874 2874 2875 2876 2877 2884 2892 2902 2923 2939 2955 2969 2980 2992 3001 3019 3032 3038 3033 3018 3042 3054 3061 3066 3066 3071 3074 3077 3080 3079 3080 3083 3084 3088 3093 3093 3095 3096 3099 3095 3099 3102 3100 3101 3100 3098 3091
2862 2861 2861 2861 2864 2868 2876 2888 2909 2923 2932 2952 2959 2975 2985 3006 3016 3018 3011 3010 3036 3043 3052 3055 3059 3063 3066 3070 3073 3073 3074 3079 3082 3084 3087 3088 3089 3087 3091 3093 3092 3094 3093 3094 3092 3089 3084
2849 2849 2848 2849 2851 2855 2864 2878 2893 2908 2923 2936 2934 2957 2976 2992 2995 2996 3001 3015 3026 3036 3040 3047 3051 3054 3059 3062 3068 3068 3070 3076 3079 3081 3081 3084 3081 3082 3084 3089 3087 3085 3086 3085 3086 3083 3076
2837 2836 2836 2835 2838 2843 2851 2864 2882 2894 2911 2924 2925 2943 2964 2976 2987 2989 2996 2999 3011 3024 3034 3041 3043 3047 3051 3054 3059 3063 3067 3072 3073 3075 3076 3079 3078 3077 3076 3080 3082 3078 3077 3077 3078 3072 3068
2827 2825 2823 2822 2826 2828 2837 2851 2869 2882 2898 2906 2913 2925 2937 2945 2959 2959 2984 2994 3001 3010 3017 3031 3034 3036 3043 3049 3051 3057 3063 3066 3068 3069 3072 3075 3070 3074 3070 3073 3076 3070 3066 3068 3067 3065 3060
2816 2816 2814 2814 2816 2818 2824 2836 2850 2869 2889 2895 2905 2920 2934 2936 2955 2966 2974 2982 2986 2997 3009 3011 3021 3031 3036 3036 3042 3052 3059 3060 3061 3061 3064 3068 3061 3071 3059 3067 3068 3056 3052 3057 3056 3053 3045
2809 2808 2805 2805 2806 2804 2811 2825 2842 2856 2875 2881 2896 2918 2928 2936 2944 2955 2955 2953 2967 2997 3001 3005 3015 3025 3023 3030 3039 3046 3052 3053 3053 3055 3058 3060 3060 3065 3044 3064 3063 3039 3038 3040 3034 3038 3041
2802 2801 2797 2799 2798 2793 2803 2815 2831 2848 2865 2881 2890 2911 2917 2924 2931 2928 2941 2963 2976 2983 2994 3002 3009 3011 3020 3028 3033 3039 3042 3043 3042 3043 3049 3052 3053 3056 3043 3057 3050 2998 3027 3030 3027 3022 3024
2799 2796 2794 2797 2797 2791 2800 2814 2830 2848 2863 2869 2882 2898 2908 2918 2924 2941 2946 2954 2970 2981 2986 2992 2998 3007 3017 3023 3027 3029 3032 3033 3028 3034 3037 3042 3044 3043 3043 3039 3024 2994 3018 3021 3018 3010 3018
2793 2791 2791 2795 2797 2795 2798 2811 2826 2846 2856 2862 2876 2888 2903 2918 2924 2936 2943 2950 2958 2966 2978 2978 2993 3002 3010 3013 3015 3014 3015 3016 3018 3018 3023 3028 3033 3036 3034 3029 3015 2995 3011 3012 3010 2988 3006
2792 2794 2794 2794 2798 2799 2803 2811 2825 2835 2844 2860 2873 2884 2897 2906 2917 2925 2932 2938 2950 2957 2964 2975 2981 2991 2997 2997 2998 2996 2997 3001 3003 3003 3008 3012 3013 3012 3016 3016 2993 2993 3006 3010 3007 3005 3005
2791 2791 2793 2795 2800 2805 2809 2816 2824 2834 2847 2858 2867 2881 2892 2901 2909 2916 2921 2932 2939 2946 2954 2961 2974 2975 2983 2984 2984 2982 2979 2980 2986 2991 2992 2995 2997 2998 3005 3008 2985 2992 2995 2999 2993 2996 2998
2793 2791 2794 2797 2800 2809 2814 2819 2828 2837 2846 2854 2867 2875 2886 2898 2906 2910 2918 2925 2931 2939 2948 2951 2956 2959 2964 2964 2963 2964 2964 2966 2970 2974 2984 2981 2980 2985 2987 2976 2982 2987 2989 2992 2989 2983 2986